Location: Maddington
(51.2000°N, 1.9167°W)
Time: 16:21:02
(UTC+00:00)

Cosmos 1125 Rocket - Pass Details

Date: 20 June 2021
Orbit: 757 x 780 km, 74.0° (Epoch: 28 July)

Event Time Altitude Azimuth Distance (km) Brightness Sun altitude
Rises 01:02:08 0° 339° (NNW) 3,242 7.7 -14.5°
Reaches altitude 10° 01:04:51 10° 352° (N) 2,316 7.1 -14.4°
Maximum altitude 01:09:20 28° 50° (NE) 1,436 5.5 -14.2°
Drops below altitude 10° 01:13:49 10° 108° (ESE) 2,318 6.0 -14.0°
Sets 01:16:32 0° 121° (ESE) 3,246 6.6 -13.9°
